Terug naar catalogus

FREGAT R/B

LostHEO
NORAD 54032·ROCKET BODY·🇷🇺 Russia

Gelanceerd Oct 10, 2022 vanaf Plesetsk Cosmodrome

Loading…

Volgende Passages (komende 24 uur)

TLE

VerouderdSource: Space-Track

Epoch: Aug 5, 2026, 14:52 UTC

1 54032U 22130B   26217.62013049 -.00000053  00000-0  00000+0 0  9993
2 54032  64.2406 313.8212 0027805 176.9692 183.0924  2.11046372 29431

Volg FREGAT R/B in realtime met AllMySat

Download on the App Store